CW5306 Weather Reports


time (UTC)temp
C
wind
direction
speed
KPH
gust
KPH
rain 1hr
cm
rain 24hr
cm
rain mn
cm
humidity
%
barometer
mb
20260502194354 25 112 12.9 33.8 0.00 0.00 0.00 70 1017.4
20260502193852 26 113 16.1 33.8 0.00 0.00 0.00 69 1017.6
20260502193352 25 80 14.5 27.4 0.00 0.00 0.00 70 1017.5
20260502192851 26 108 6.4 25.7 0.00 0.00 0.00 71 1017.3
20260502192351 25 118 12.9 25.7 0.00 0.00 0.00 71 1017.4
20260502191852 25 60 9.7 25.7 0.00 0.00 0.00 71 1017.3
20260502191352 26 133 4.8 25.7 0.00 0.00 0.00 70 1017.3
20260502190851 25 93 16.1 25.7 0.00 0.00 0.00 70 1017.7
20260502190351 25 85 6.4 27.4 0.00 0.00 0.00 71 1017.6
20260502185852 25 121 12.9 27.4 0.00 0.00 0.00 71 1017.5
20260502185353 25 72 8.0 27.4 0.00 0.00 0.00 73 1017.5
20260502185124 25 84 17.7 25.7 0.00 0.00 0.00 74 1017.5
20260502184352 25 65 12.9 27.4 0.00 0.00 0.00 72 1017.7
20260502183852 25 93 6.4 30.6 0.00 0.00 0.00 72 1017.7
20260502183351 25 88 6.4 30.6 0.00 0.00 0.00 70 1017.5
20260502182852 25 94 12.9 32.2 0.00 0.00 0.00 71 1017.5
20260502182351 25 104 9.7 32.2 0.00 0.00 0.00 71 1017.5
20260502181851 25 76 14.5 27.4 0.00 0.00 0.00 72 1017.5
20260502181623 25 58 4.8 22.5 0.00 0.00 0.00 74 1017.6
20260502180851 25 119 11.3 25.7 0.00 0.00 0.00 73 1017.5
20260502180352 24 133 12.9 25.7 0.00 0.00 0.00 73 1017.6
20260502170339 23 107 11.3 24.1 0.00 0.00 0.00 74 1016.9
20260502164328 23 72 14.5 27.4 0.00 0.00 0.00 74 1016.6
20260502163827 22 78 12.9 24.1 0.00 0.00 0.00 76 1016.9
20260502163327 22 98 9.7 24.1 0.00 0.00 0.00 76 1016.8
20260502162828 22 101 9.7 24.1 0.00 0.00 0.00 78 1016.7
20260502162328 22 119 11.3 22.5 0.00 0.00 0.00 77 1016.7
20260502161827 22 81 11.3 25.7 0.00 0.00 0.00 77 1016.8
20260502161328 22 121 17.7 25.7 0.00 0.00 0.00 77 1016.6
20260502160815 22 140 8.0 27.4 0.00 0.00 0.00 77 1016.6
20260502160316 22 105 9.7 27.4 0.00 0.00 0.00 77 1016.7
20260502152253 22 91 11.3 24.1 0.00 0.00 0.00 78 1016.4
20260502152023 22 57 9.7 25.7 0.00 0.00 0.00 78 1016.4
20260502151252 22 108 4.8 25.7 0.00 0.00 0.00 78 1016.6
20260502150752 22 98 8.0 22.5 0.00 0.00 0.00 77 1016.3
20260502150251 22 88 9.7 20.9 0.00 0.00 0.00 78 1016.5
20260502130252 22 91 6.4 24.1 0.00 0.05 0.00 75 1016.7
20260502123240 22 127 8.0 25.7 0.00 0.05 0.00 77 1017.0
20260502122739 22 115 4.8 25.7 0.00 0.05 0.00 77 1017.0
20260502122240 22 40 8.0 24.1 0.00 0.05 0.00 77 1017.0
20260502121740 22 123 17.7 24.1 0.00 0.05 0.00 76 1017.1
20260502121511 22 67 16.1 24.1 0.00 0.05 0.00 76 1017.0
20260502120740 22 126 12.9 24.1 0.00 0.05 0.00 76 1017.3
20260502120240 22 102 16.1 22.5 0.00 0.05 0.00 76 1017.4
20260502115738 22 92 8.0 24.1 0.00 0.05 0.00 76 1017.5
20260502115239 22 80 9.7 24.1 0.00 0.05 0.00 75 1017.3
20260502114739 22 114 4.8 24.1 0.00 0.05 0.00 76 1017.3
20260502114238 22 125 6.4 25.7 0.00 0.05 0.00 77 1017.5
20260502113738 22 111 12.9 25.7 0.00 0.05 0.00 78 1017.7
20260502113510 22 145 8.0 22.5 0.00 0.05 0.00 79 1017.4
20260502112740 22 90 12.9 22.5 0.00 0.05 0.00 77 1017.4
20260502112238 22 86 12.9 22.5 0.00 0.05 0.00 76 1017.6
20260502111739 22 125 9.7 25.7 0.00 0.05 0.00 77 1017.7
20260502111240 22 124 12.9 25.7 0.00 0.05 0.00 77 1017.7
20260502110739 22 107 9.7 24.1 0.00 0.05 0.00 77 1017.6
20260502110238 22 100 12.9 24.1 0.00 0.05 0.00 80 1017.7
20260502105739 22 125 12.9 22.5 0.00 0.05 0.00 80 1017.8
20260502105238 22 92 11.3 24.1 0.00 0.05 0.00 80 1018.1
20260502105009 22 121 9.7 24.1 0.00 0.05 0.00 80 1018.2
20260502104240 22 110 4.8 30.6 0.00 0.05 0.00 79 1018.0
20260502103739 22 101 11.3 30.6 0.00 0.05 0.00 79 1017.9
20260502103510 22 90 8.0 20.9 0.00 0.05 0.00 80 1017.9
20260502102739 22 95 11.3 30.6 0.00 0.05 0.00 80 1018.1
20260502102240 22 89 14.5 30.6 0.00 0.05 0.00 79 1018.1
20260502101738 22 99 8.0 22.5 0.00 0.05 0.00 79 1018.1
20260502101509 22 89 8.0 25.7 0.00 0.05 0.00 78 1018.2
20260502100738 22 105 17.7 25.7 0.00 0.05 0.00 77 1018.3
20260502100509 23 98 8.0 30.6 0.00 0.05 0.00 78 1018.1
20260502091239 23 90 9.7 25.7 0.00 0.08 0.05 77 1018.6
20260502091009 23 82 6.4 27.4 0.00 0.08 0.05 77 1018.4
20260502090239 23 83 12.9 27.4 0.00 0.08 0.05 78 1018.5
20260502071153 23 91 14.5 24.1 0.00 0.08 0.05 75 1018.4
20260502070922 23 157 11.3 24.1 0.00 0.08 0.05 73 1018.6
20260502070151 23 86 9.7 27.4 0.00 0.08 0.05 75 1018.3
20260502065921 23 81 9.7 27.4 0.00 0.08 0.05 76 1018.4
20260502065151 23 86 8.0 24.1 0.00 0.08 0.05 77 1018.4
20260502064651 23 82 6.4 24.1 0.00 0.08 0.05 77 1018.4
20260502064151 23 104 11.3 22.5 0.00 0.08 0.05 77 1018.3
20260502063650 23 110 9.7 22.5 0.00 0.08 0.05 77 1018.1
20260502063421 23 66 12.9 22.5 0.00 0.08 0.05 77 1018.1
20260502062650 23 73 12.9 22.5 0.00 0.08 0.05 77 1018.1
20260502062150 23 94 9.7 24.1 0.00 0.08 0.05 77 1018.1
20260502061651 23 100 6.4 24.1 0.00 0.08 0.05 77 1018.0
20260502061424 23 109 11.3 25.7 0.00 0.08 0.05 76 1017.9
20260502060921 23 115 9.7 30.6 0.00 0.08 0.05 76 1017.9
20260502060138 23 106 17.7 30.6 0.00 0.08 0.05 76 1017.7
20260502055638 23 94 9.7 20.9 0.00 0.08 0.05 77 1017.8
20260502055138 23 34 6.4 27.4 0.00 0.08 0.05 76 1017.6
20260502054638 23 120 6.4 27.4 0.00 0.08 0.05 76 1017.7
20260502054138 23 108 6.4 32.2 0.00 0.08 0.05 78 1017.5
20260502053910 23 84 9.7 32.2 0.00 0.08 0.05 77 1017.4
20260502053140 23 84 9.7 24.1 0.00 0.08 0.05 77 1017.6
20260502052639 23 85 14.5 32.2 0.00 0.08 0.05 75 1017.4
20260502052139 23 88 6.4 32.2 0.00 0.08 0.05 76 1017.2
20260502051640 23 112 14.5 27.4 0.00 0.08 0.05 76 1017.3
20260502051410 23 84 14.5 27.4 0.00 0.08 0.05 76 1017.3
20260502050640 23 94 9.7 30.6 0.00 0.08 0.05 74 1017.2
20260502050138 23 52 12.9 30.6 0.00 0.08 0.05 74 1017.1
20260502045639 23 111 14.5 25.7 0.00 0.08 0.05 73 1016.9
20260502045139 23 99 12.9 25.7 0.00 0.08 0.05 74 1017.1
20260502044910 23 94 12.9 25.7 0.00 0.08 0.05 74 1016.8
20260502044409 23 97 12.9 25.7 0.00 0.08 0.05 75 1016.9
20260502043639 24 74 20.9 25.7 0.00 0.08 0.05 74 1016.9
20260502043138 24 122 8.0 24.1 0.00 0.08 0.05 75 1017.0
20260502042638 23 126 12.9 33.8 0.00 0.08 0.05 75 1016.9
20260502042139 24 51 22.5 33.8 0.00 0.08 0.05 75 1016.7
20260502041639 24 126 8.0 27.4 0.00 0.08 0.05 75 1016.7
20260502041140 24 75 4.8 30.6 0.00 0.08 0.05 75 1016.7
20260502040638 24 105 14.5 30.6 0.00 0.08 0.05 73 1016.3
20260502040138 24 96 12.9 25.7 0.00 0.08 0.05 74 1016.7
20260502035638 24 61 12.9 25.7 0.00 0.08 0.05 74 1016.7
20260502035138 24 113 16.1 27.4 0.00 0.08 0.05 74 1016.4
20260502034638 24 139 8.0 27.4 0.00 0.08 0.05 74 1016.6
20260502034139 24 109 12.9 33.8 0.00 0.08 0.05 72 1016.6
20260502033639 24 83 12.9 33.8 0.00 0.08 0.05 74 1016.5
20260502033138 24 112 9.7 32.2 0.00 0.08 0.05 75 1016.3
20260502032639 24 93 9.7 32.2 0.00 0.08 0.05 74 1016.2
20260502032138 25 82 12.9 27.4 0.00 0.08 0.05 73 1016.3
20260502031640 25 115 16.1 27.4 0.00 0.08 0.05 72 1016.2
20260502031409 24 71 20.9 25.7 0.00 0.08 0.05 73 1016.1
20260502030639 24 129 9.7 27.4 0.00 0.08 0.05 72 1016.3
20260502030140 25 95 20.9 32.2 0.00 0.08 0.05 73 1016.2
20260502025640 25 108 9.7 32.2 0.00 0.08 0.05 70 1016.0
20260502025140 25 62 22.5 30.6 0.00 0.08 0.05 72 1016.0
20260502024638 25 107 17.7 27.4 0.00 0.08 0.05 70 1016.1
20260502024139 25 84 12.9 27.4 0.00 0.08 0.05 72 1016.0
20260502023639 25 60 19.3 27.4 0.00 0.08 0.05 74 1016.0
20260502023139 25 68 17.7 33.8 0.00 0.08 0.05 72 1016.1
20260502022638 25 90 12.9 33.8 0.00 0.08 0.05 71 1015.8
20260502022416 25 87 12.9 32.2 0.00 0.08 0.05 72 1015.8
20260502022139 26 126 17.7 32.2 0.00 0.08 0.05 71 1016.0
20260502021410 25 65 14.5 32.2 0.00 0.08 0.05 72 1016.1
20260502020638 25 120 22.5 32.2 0.00 0.08 0.05 71 1016.3
20260502020410 25 123 9.7 27.4 0.00 0.08 0.05 73 1015.9
20260502015639 26 116 9.7 32.2 0.00 0.08 0.05 71 1016.3
20260502015139 26 73 14.5 32.2 0.00 0.08 0.05 70 1016.1
20260502014639 26 85 14.5 27.4 0.00 0.08 0.05 68 1016.2
20260502014139 26 72 9.7 30.6 0.00 0.08 0.05 68 1016.1
20260502013638 26 78 12.9 30.6 0.00 0.08 0.05 68 1016.0
20260502013410 26 52 9.7 30.6 0.00 0.08 0.05 69 1016.3
20260502012639 26 84 16.1 27.4 0.00 0.08 0.05 68 1016.3
20260502012139 26 69 19.3 27.4 0.00 0.08 0.05 68 1016.2
20260502011639 26 92 16.1 32.2 0.00 0.08 0.05 67 1016.6
20260502011140 26 59 11.3 32.2 0.00 0.08 0.05 68 1016.7
20260502010639 26 102 19.3 30.6 0.00 0.08 0.05 69 1016.4
20260502010141 26 78 9.7 30.6 0.00 0.08 0.05 68 1016.6
20260502005639 26 98 11.3 24.1 0.00 0.08 0.05 66 1016.7
20260502005127 26 77 11.3 24.1 0.00 0.08 0.05 67 1016.9
20260502004857 26 59 9.7 24.1 0.00 0.08 0.05 66 1016.6
20260502004127 26 126 4.8 27.4 0.00 0.08 0.05 68 1016.7
20260502003627 26 65 12.9 27.4 0.00 0.08 0.05 66 1016.9
20260502003127 26 107 12.9 27.4 0.00 0.08 0.05 64 1017.0
20260502002627 26 89 17.7 30.6 0.00 0.08 0.05 66 1017.0
20260502002127 26 108 9.7 30.6 0.00 0.08 0.05 67 1016.9
20260502001846 26 115 14.5 27.4 0.00 0.08 0.05 66 1017.0
20260502001115 26 42 9.7 27.4 0.00 0.08 0.05 66 1016.8
20260502000615 26 85 14.5 30.6 0.00 0.08 0.05 66 1017.1
20260502000114 26 108 9.7 30.6 0.00 0.08 0.05 65 1017.2
20260501235614 26 95 22.5 30.6 0.00 0.08 0.05 62 1017.1
20260501235114 26 106 8.0 30.6 0.00 0.08 0.05 68 1017.0
20260501234615 26 75 16.1 27.4 0.00 0.08 0.05 68 1017.1
20260501234103 26 103 12.9 33.8 0.00 0.08 0.05 65 1017.2
20260501233551 26 62 12.9 33.8 0.00 0.08 0.05 66 1017.4
20260501233050 26 58 14.5 27.4 0.00 0.08 0.05 66 1017.4
20260501232550 26 96 12.9 30.6 0.00 0.08 0.05 68 1017.2
20260501232051 26 110 12.9 30.6 0.00 0.08 0.05 68 1017.4
20260501231551 26 100 22.5 27.4 0.00 0.08 0.05 68 1017.6
20260501231050 26 106 9.7 27.4 0.00 0.08 0.05 68 1017.8
20260501230551 26 25 11.3 25.7 0.00 0.08 0.05 67 1017.7
20260501230039 26 65 11.3 27.4 0.00 0.08 0.05 64 1017.9
20260501225810 26 91 16.1 30.6 0.00 0.08 0.05 64 1017.9
20260501225039 26 107 9.7 32.2 0.00 0.08 0.05 67 1017.7
20260501224539 26 127 17.7 32.2 0.00 0.08 0.05 66 1018.0
20260501224309 26 86 20.9 32.2 0.00 0.08 0.05 65 1018.0
20260501223539 25 88 19.3 25.7 0.00 0.08 0.05 71 1018.1
20260501223040 25 130 9.7 32.2 0.00 0.08 0.05 74 1018.1
20260501222540 25 92 12.9 32.2 0.00 0.08 0.05 70 1018.3
20260501222039 26 74 14.5 27.4 0.00 0.08 0.05 70 1018.3
20260501221538 26 104 6.4 27.4 0.00 0.08 0.05 73 1018.3
20260501221310 25 65 12.9 27.4 0.00 0.08 0.05 70 1018.3
20260501220539 26 82 20.9 27.4 0.00 0.08 0.05 69 1018.5
20260501220039 26 120 14.5 32.2 0.00 0.08 0.05 69 1018.2
20260501215527 26 80 12.9 32.2 0.00 0.08 0.05 67 1018.2
20260501215027 26 115 16.1 32.2 0.00 0.08 0.05 67 1018.2
20260501214527 26 103 16.1 30.6 0.00 0.08 0.05 67 1018.3
20260501214028 26 89 12.9 37.0 0.00 0.08 0.05 67 1018.3
20260501213526 26 114 9.7 37.0 0.00 0.08 0.05 67 1018.4
20260501213028 26 116 9.7 32.2 0.00 0.08 0.05 68 1018.4
20260501212526 26 55 17.7 30.6 0.00 0.08 0.05 68 1018.4
20260501212015 26 120 12.9 37.0 0.00 0.08 0.05 66 1018.5
20260501211515 26 98 17.7 32.2 0.00 0.08 0.05 64 1018.6
20260501211003 26 121 6.4 32.2 0.00 0.08 0.05 65 1018.7
20260501210503 26 137 3.2 33.8 0.00 0.08 0.05 66 1018.6
20260501210234 26 51 12.9 37.0 0.00 0.08 0.05 67 1018.5
20260501205502 26 52 22.5 37.0 0.00 0.08 0.05 69 1018.7
20260501205002 26 104 20.9 37.0 0.00 0.08 0.05 68 1018.5
20260501204502 26 113 0.0 41.8 0.00 0.08 0.05 70 1018.5
20260501204002 25 110 6.4 41.8 0.00 0.08 0.05 67 1018.8
20260501203721 25 128 0.0 32.2 0.00 0.08 0.05 68 1018.9
20260501202950 25 101 16.1 32.2 0.00 0.08 0.05 70 1018.8
20260501202451 25 102 9.7 32.2 0.00 0.08 0.05 70 1018.6
20260501201951 25 90 6.4 41.8 0.00 0.08 0.05 73 1018.8
20260501201451 25 82 20.9 41.8 0.00 0.08 0.05 72 1018.8
20260501200951 25 117 8.0 38.6 0.00 0.08 0.05 74 1018.6
20260501200723 25 114 3.2 38.6 0.00 0.08 0.05 72 1018.9
20260501195951 25 130 0.0 37.0 0.00 0.08 0.05 71 1018.8
20260501195451 25 122 9.7 32.2 0.00 0.08 0.05 71 1019.0